Theta_e
354 353 350 349 350 345 345 345 343 345 343 341 339 337 337 335 337 339 339 351 351 351 350 350 350 350 350 350 351 351 351 351 352 351 351 351 351 351 352 352 352 351 352
358 356 354 352 350 350 348 348 346 348 343 343 340 341 340 336 337 338 340 343 350 350 351 351 350 349 350 350 350 350 351 351 350 350 350 350 350 350 349 349 350 351 351
355 359 353 353 352 352 355 352 349 347 344 340 340 341 341 341 338 339 342 340 342 349 351 351 352 351 349 350 350 350 350 350 350 349 349 349 349 349 349 348 348 348 350
357 357 350 350 353 355 355 346 347 345 343 342 340 341 341 340 339 339 340 340 340 338 347 350 351 352 351 349 350 350 349 349 348 348 348 347 347 348 348 348 346 347 348
350 353 351 353 357 353 353 351 344 348 345 345 342 342 341 344 345 341 340 338 338 340 338 345 349 350 350 350 351 350 348 348 346 346 345 345 345 345 345 346 346 345 345
349 353 351 352 355 352 351 353 348 350 348 340 342 341 340 345 344 340 340 339 338 336 339 340 341 345 349 350 351 351 349 348 346 345 344 343 343 342 342 342 343 344 345
352 354 349 352 354 349 349 350 353 351 349 349 342 340 340 344 339 337 337 339 339 338 340 341 340 337 343 349 348 350 351 349 348 346 344 343 343 341 341 340 340 341 343
351 352 354 350 351 349 352 349 351 346 345 352 340 337 329 330 336 335 336 338 339 342 341 340 339 341 339 342 342 348 349 349 347 347 345 343 342 341 340 340 339 338 341
347 350 353 355 356 355 347 351 347 346 340 343 343 335 325 323 327 333 332 334 336 338 338 339 339 341 340 341 343 345 345 345 347 344 343 343 342 342 341 341 341 340 339
351 349 354 354 356 352 349 350 348 346 342 337 339 339 336 329 322 321 332 332 334 334 334 335 336 338 335 337 338 338 340 339 339 337 336 336 338 339 341 341 341 341 339
358 355 356 355 350 352 349 347 346 344 342 340 338 336 333 330 329 325 321 324 330 331 333 329 329 330 330 329 328 329 330 330 330 329 329 329 330 332 334 337 340 341 340
349 350 351 351 350 350 348 348 347 345 342 339 336 335 328 325 325 325 323 325 321 318 317 319 320 320 324 325 330 329 327 327 326 325 328 330 330 331 334 335 336 340 338
345 346 347 346 345 347 345 343 340 334 329 326 325 322 321 320 322 323 321 311 310 312 316 317 319 320 321 321 322 325 324 322 321 321 322 322 324 325 325 326 328 330 335
343 343 342 341 339 336 334 331 328 325 322 321 320 319 319 318 319 318 318 314 310 310 312 312 317 318 319 320 323 324 323 321 319 318 319 319 319 318 319 319 320 321 323
339 338 337 333 332 330 328 327 325 325 325 325 324 323 322 321 321 319 318 316 312 306 308 312 315 319 319 320 318 318 320 321 320 318 318 318 317 317 316 316 317 318 319
334 329 328 327 325 323 324 322 320 321 320 320 319 318 318 318 318 318 318 317 316 312 307 315 315 316 319 322 322 318 319 320 322 321 320 319 319 318 318 318 318 319 320
331 329 329 327 325 324 324 322 322 321 320 320 320 317 319 320 318 320 320 320 317 316 310 314 315 320 319 319 319 322 319 319 320 322 322 321 318 317 316 316 316 317 318
331 330 328 328 327 327 328 327 325 325 321 320 320 319 317 322 320 322 321 320 319 319 316 312 316 317 317 319 319 318 321 319 319 322 323 320 318 317 316 315 315 315 315
327 328 328 327 327 327 326 326 324 321 319 316 314 312 311 312 310 314 313 312 312 312 317 312 312 317 316 316 314 315 314 313 316 320 320 319 318 317 317 316 315 314 313
325 321 319 318 318 318 322 321 321 320 318 316 315 314 312 311 310 310 310 309 309 308 308 307 308 310 310 312 312 307 306 309 309 313 316 315 315 316 316 315 316 316 313
320 318 315 314 315 312 310 317 318 317 317 318 316 312 312 312 312 312 310 311 309 306 305 305 305 305 305 305 304 306 304 305 307 309 308 311 310 309 311 315 317 318 315
316 313 311 311 311 307 305 308 315 315 314 313 311 311 309 308 310 310 310 309 309 307 305 305 304 303 303 305 305 304 304 303 300 308 307 305 308 307 310 312 311 311 310
313 311 311 312 310 308 303 304 311 312 312 313 311 309 305 305 305 306 310 310 310 309 311 309 306 306 305 307 307 305 304 304 303 306 306 303 307 307 310 313 310 310 308
318 315 313 314 312 305 303 302 307 312 312 312 311 310 307 305 302 303 310 308 310 310 310 309 309 309 307 308 307 306 306 307 306 308 309 301 306 305 309 310 311 310 308
319 317 315 314 313 310 301 300 306 316 311 309 308 308 307 306 300 300 308 306 308 308 310 310 308 306 304 304 304 306 304 303 301 303 307 303 304 303 305 306 310 310 309
318 314 314 315 310 313 301 300 303 308 312 307 307 306 302 303 300 300 304 307 304 305 305 307 308 309 309 309 306 308 306 303 302 300 305 302 302 303 301 306 307 309 309
Wind_Speed
4 3 4 3 3 5 5 6 5 5 5 6 7 7 6 5 6 7 6 16 16 14 12 10 9 9 9 9 9 9 9 8 8 8 7 8 8 9 9 9 9 8 9
3 2 2 3 4 4 4 4 1 2 4 5 6 7 5 4 6 5 8 8 14 15 15 14 11 10 10 10 10 10 9 8 8 7 7 7 6 6 7 8 9 9 9
5 3 4 4 5 5 3 2 4 4 5 5 6 5 5 7 5 5 3 8 9 15 15 16 15 14 12 12 12 12 11 10 10 10 9 9 9 8 8 7 6 6 7
6 4 4 5 5 4 2 2 3 4 5 6 5 5 3 3 6 6 5 5 8 9 13 16 16 16 16 15 15 15 14 12 10 9 9 9 9 8 8 8 7 6 6
8 6 5 5 6 4 4 4 4 3 4 5 7 4 4 3 4 4 4 7 5 9 8 17 18 16 15 16 17 16 15 13 12 11 10 9 9 8 7 7 7 7 6
9 6 6 7 6 4 4 3 5 4 3 4 8 4 5 10 3 3 3 4 6 6 3 11 11 11 18 17 17 20 19 18 16 14 12 11 10 9 9 9 8 8 8
6 6 7 6 6 6 7 8 4 5 3 2 3 4 3 10 3 3 2 4 5 6 6 10 3 3 9 21 21 20 20 20 19 17 13 11 10 10 9 10 9 10 10
7 6 5 6 6 5 7 9 6 4 3 2 3 1 4 5 3 2 4 3 4 2 2 7 6 6 7 8 14 21 21 19 18 17 16 14 13 12 12 11 11 11 10
11 7 6 5 4 4 6 6 6 6 6 4 6 3 2 4 3 2 2 4 6 4 2 4 4 4 8 6 8 16 21 16 14 11 10 11 12 13 14 13 12 12 12
7 8 7 6 5 5 6 4 4 5 7 8 4 4 1 0 2 4 1 3 4 4 4 4 4 3 2 2 13 13 8 14 12 10 9 9 7 5 10 15 14 14 15
4 2 1 1 3 4 6 6 6 7 5 4 5 3 1 1 4 7 10 4 0 2 2 4 4 2 4 5 6 6 14 17 13 10 8 7 7 8 11 14 13 15 17
7 11 11 8 6 5 5 5 5 6 6 7 5 4 1 1 3 8 6 3 6 6 7 7 7 7 7 5 8 10 11 17 11 14 15 6 3 6 11 13 16 14 12
6 7 8 9 8 9 10 9 10 12 10 7 8 6 6 5 4 2 3 3 3 3 2 6 6 6 5 4 7 12 18 12 10 12 11 12 12 9 8 11 13 16 16
8 10 11 11 12 12 10 10 9 9 10 8 10 7 4 3 4 4 3 3 1 4 3 2 1 2 2 3 7 12 6 9 7 8 6 4 4 3 5 7 10 12 15
9 11 13 13 13 13 12 11 8 7 7 6 6 4 2 2 4 3 3 3 2 2 2 1 2 3 2 2 4 1 1 3 8 8 10 8 8 7 4 5 7 10 11
12 13 13 12 12 10 9 8 7 6 7 5 3 5 4 3 4 4 3 3 3 1 0 2 3 3 3 3 5 5 5 12 14 14 14 14 12 11 8 8 7 7 9
10 11 10 10 10 8 7 7 6 5 5 5 4 4 4 3 2 1 0 1 1 1 1 2 3 4 4 3 3 5 7 7 8 15 17 12 11 11 9 8 8 9 9
10 10 10 7 9 6 5 4 4 7 11 9 10 10 12 8 8 5 4 4 3 2 1 3 1 3 5 6 5 5 4 4 4 3 8 11 13 12 11 9 10 10 11
10 9 8 6 6 7 7 6 7 10 10 11 10 10 10 9 9 7 8 8 8 7 1 3 2 3 2 2 2 1 1 3 3 8 10 13 13 14 13 12 11 12 11
9 10 10 11 12 12 9 9 8 8 8 8 7 8 9 8 8 8 8 8 9 9 9 7 5 7 8 7 6 6 6 4 5 8 8 9 6 6 10 12 12 15 13
9 10 10 10 9 11 10 8 8 9 8 6 8 9 7 9 10 10 5 6 7 8 7 7 8 8 8 7 7 6 6 5 5 3 5 5 3 4 6 8 10 12 8
9 10 9 10 9 9 15 16 9 8 9 11 10 9 9 15 13 7 7 9 6 5 5 5 6 5 6 6 5 6 6 6 5 4 7 7 4 5 3 4 1 4 7
7 7 8 8 9 8 14 13 10 8 8 7 8 8 8 9 11 9 8 2 1 5 8 4 5 4 4 5 5 7 7 7 7 9 5 6 4 5 6 3 6 6 5
7 7 7 6 6 6 8 11 9 7 5 5 6 7 7 8 9 10 8 10 6 6 4 4 4 4 4 6 4 5 8 6 6 6 6 6 5 4 4 5 9 12 11
5 6 6 6 5 5 10 11 8 5 7 6 6 6 6 5 8 13 7 6 6 6 8 7 11 9 7 7 4 3 5 6 7 7 4 5 5 7 6 5 4 1 6
5 6 6 5 6 4 8 10 10 6 6 6 5 4 5 5 5 7 6 6 6 7 8 8 7 2 2 2 6 2 4 5 7 5 3 5 5 5 4 4 3 4 4
Wind_Direction
189 226 281 200 232 172 194 208 223 195 203 217 243 251 293 352 321 131 154 167 160 161 174 185 190 190 190 192 189 189 195 197 191 189 186 191 192 192 196 195 202 205 190
254 245 233 283 266 276 254 216 210 287 239 250 253 228 222 202 294 309 138 169 174 172 176 183 196 199 193 197 198 194 193 190 185 180 175 176 178 183 196 202 202 205 207
272 259 261 221 242 242 239 9 342 317 297 279 273 275 214 194 219 262 177 170 176 185 186 186 190 197 204 200 192 192 187 184 179 177 172 169 168 172 177 184 199 202 200
206 248 241 275 263 258 257 179 204 233 265 263 248 251 263 228 207 220 216 200 173 186 192 197 197 194 197 208 199 194 187 183 184 183 181 175 179 179 180 177 182 190 194
210 208 250 250 252 263 276 203 215 236 267 313 316 7 21 41 9 19 22 333 236 171 181 198 198 200 203 203 204 202 199 192 189 189 192 200 201 201 200 208 206 200 201
203 206 221 245 274 278 263 230 217 219 200 256 292 347 27 298 311 323 1 346 303 313 264 192 194 197 201 205 207 204 203 201 195 197 198 201 210 213 209 215 221 228 224
228 196 220 237 230 242 265 283 224 244 265 207 340 291 232 240 216 289 309 296 319 13 22 1 351 222 200 204 208 209 204 203 202 197 201 206 208 218 224 224 228 228 228
232 233 224 228 242 260 236 243 271 276 260 272 228 325 297 297 271 18 18 349 327 348 331 327 305 326 327 285 211 209 209 204 203 201 193 196 204 213 221 224 223 230 231
211 211 226 237 268 275 275 288 255 254 259 265 236 216 280 246 14 345 2 344 320 309 273 227 93 345 334 306 278 222 207 202 209 208 213 209 213 219 222 223 220 219 224
200 215 210 217 226 242 255 283 307 268 268 252 287 216 85 194 252 287 272 267 229 261 304 10 10 69 66 20 64 45 100 99 90 83 75 54 29 321 263 247 233 223 221
357 250 268 88 326 330 319 336 307 295 294 308 296 288 109 212 225 257 281 291 107 342 22 37 18 41 108 110 84 64 52 64 66 65 57 63 48 4 341 333 281 244 234
39 38 34 30 15 5 348 354 4 13 17 23 9 2 69 40 289 263 240 288 12 59 23 29 38 42 20 49 73 94 100 88 58 37 21 334 308 337 334 335 320 282 282
46 42 35 32 37 29 39 39 43 54 57 65 62 64 62 43 332 11 72 68 30 18 39 38 23 24 38 29 53 52 53 40 60 74 46 25 27 23 14 360 344 340 292
53 45 54 50 48 52 56 61 71 72 79 76 75 69 65 49 33 24 60 147 114 32 50 131 21 20 53 29 56 38 85 77 46 53 71 18 25 27 8 0 342 333 335
59 54 59 66 64 67 70 68 70 75 73 73 74 79 74 38 53 33 42 28 115 106 357 265 171 199 184 147 105 69 45 203 210 193 202 193 208 224 233 250 272 292 297
72 72 71 67 64 58 57 68 72 67 75 61 54 69 52 32 34 16 38 7 32 67 192 219 246 222 233 218 212 215 226 231 232 232 232 218 220 224 222 231 246 256 265
89 88 83 85 83 86 84 88 85 81 75 65 54 50 45 42 19 340 6 339 354 17 355 270 216 199 205 242 260 239 241 245 247 237 228 219 224 230 234 243 253 258 269
83 83 90 83 102 98 107 99 96 76 66 57 44 39 35 35 24 27 26 16 358 356 18 321 105 192 209 226 236 247 258 318 347 353 192 220 237 238 237 238 246 251 256
64 76 72 92 84 80 70 60 60 76 72 61 52 48 38 32 20 15 24 18 3 346 311 336 301 187 142 84 347 282 197 271 283 282 219 227 241 246 231 233 239 247 246
70 54 48 45 43 33 41 48 45 89 88 100 84 61 46 31 30 24 37 22 8 5 14 5 10 39 37 3 28 23 358 349 355 348 338 322 334 303 244 250 250 247 238
71 68 60 48 55 51 33 31 50 39 38 64 90 80 58 28 32 28 36 22 28 33 11 3 14 15 22 9 3 352 342 333 326 337 320 326 335 312 299 275 250 251 244
79 77 64 61 55 45 19 23 43 58 49 49 50 48 48 31 16 13 18 56 40 47 33 12 12 12 356 0 348 341 324 343 325 331 338 309 324 302 303 302 360 155 176
71 71 78 78 53 34 20 20 45 55 55 65 63 52 40 29 16 356 351 213 308 343 21 41 15 8 357 348 348 338 336 330 313 301 311 302 315 307 305 281 215 224 235
97 98 92 90 89 45 28 19 352 115 85 67 80 82 60 27 8 2 15 21 17 45 28 10 358 350 339 332 339 319 314 300 299 318 344 304 309 303 309 288 210 197 196
100 103 98 93 73 36 19 14 9 172 137 102 59 59 81 58 1 360 15 3 18 19 350 340 342 289 292 310 290 311 333 327 324 328 347 345 325 322 302 294 358 213 237
112 109 107 110 89 47 17 19 21 27 78 126 116 125 92 85 8 6 356 352 5 347 332 325 325 344 63 178 214 292 331 333 324 302 11 343 321 328 304 301 343 188 222